Location: ????????
(56.0167°N, 38.0333°E)
Time: 03:23:32
(UTC+00:00)

Cosmos 1500 Rocket - Pass Details

Date: 19 May 2025
Orbit: 598 x 623 km, 82.5° (Epoch: 15 June)

Event Time Altitude Azimuth Distance (km) Brightness Sun altitude
Rises 21:07:30 0° 344° (NNW) 2,879 8.7 -13.9°
Reaches altitude 10° 21:09:46 10° 340° (NNW) 1,974 7.4 -14.0°
Maximum altitude 21:13:59 51° 265° (W) 777 4.0 -14.0°
Enters shadow 21:16:38 21° 197° (SSW) 1,376 4.8 -14.0°
